Weather History for KBDL - May, 2014

Change the Weather History Date:

Monday, May 12, 2014

  Actual Average Record
Temperature  
Mean Temperature 70 °F 58 °F  
Max Temperature 90 °F 70 °F 90 °F (2004)
Min Temperature 49 °F 47 °F 32 °F (1983)
Degree Days  
Heating Degree Days 0 7  
Month to date heating degree days 82 105  
Since 1 July heating degree days 6279 5858  
Cooling Degree Days 5 1  
Month to date cooling degree days 15 5  
Year to date cooling degree days 16 11  
Growing Degree Days 19 (Base 50)    
Moisture  
Dew Point 45 °F    
Average Humidity 49    
Maximum Humidity 80    
Minimum Humidity 17    
Precipitation  
Precipitation 0.00 in 0.13 in 2.94 in (2006)
Month to date precipitation 1.35 1.49  
Year to date precipitation 18.90 14.95  
Snow  
Snow 0.00 in 0.00 in 0.00 in (2001)
Month to date snowfall 0.0 0.0  
Since 1 July snowfall 51.1 40.5  
Snow Depth 0.00 in    
Sea Level Pressure  
Sea Level Pressure 30.05 in    
Wind  
Wind Speed 7 mph (SSW)    
Max Wind Speed 22 mph    
Max Gust Speed 25 mph    
Visibility 10 miles    
Events      
T = Trace of Precipitation, MM = Missing Value Source: NWS Daily Summary

Daily Weather History Graph

Daily Weather History Graph

Search for Another Location

Airport or City:

Trip Planner

Search our weather history database for the weather conditions in past years. The results will help you decide how hot, cold, wet, or windy it might be!

Date:

Astronomy

May. 12, 2014 Rise Set
Actual Time 5:33 AM EDT 8:01 PM EDT
Civil Twilight 5:02 AM EDT 8:32 PM EDT
Nautical Twilight 4:22 AM EDT 9:12 PM EDT
Astronomical Twilight 3:39 AM EDT 9:56 PM EDT
Moon 5:54 PM EDT (5/12) 4:13 AM EDT (5/12)
Length of Visible Light 15h 30m
Length of Day
14h 27m
Waxing Gibbous, 95% of the Moon is Illuminated
May 12
Waxing Gibbous
May 14
Full
May 21
Last Quarter
May 28
New
Jun 5
First Quarter

Hourly Weather History & Observations

Time (EDT) Temp. Dew Point Humidity Pressure Visibility Wind Dir Wind Speed Gust Speed Precip Events Conditions
12:51 AM 57.0 °F 39.0 °F 51% 30.06 in 10.0 mi WSW 4.6 mph - N/A   Clear
1:51 AM 57.0 °F 39.9 °F 53% 30.08 in 10.0 mi Calm Calm - N/A   Clear
2:51 AM 57.0 °F 39.9 °F 53% 30.07 in 10.0 mi West 3.5 mph - N/A   Partly Cloudy
3:51 AM 53.1 °F 42.1 °F 66% 30.09 in 10.0 mi WSW 5.8 mph - N/A   Partly Cloudy
4:51 AM 53.1 °F 42.1 °F 66% 30.09 in 10.0 mi Calm Calm - N/A   Mostly Cloudy
5:51 AM 48.9 °F 43.0 °F 80% 30.09 in 10.0 mi Calm Calm - N/A   Mostly Cloudy
6:51 AM 53.1 °F 44.1 °F 71% 30.09 in 10.0 mi Calm Calm - N/A   Mostly Cloudy
7:51 AM 61.0 °F 44.1 °F 54% 30.11 in 10.0 mi Calm Calm - N/A   Mostly Cloudy
8:51 AM 64.9 °F 43.0 °F 45% 30.11 in 10.0 mi Calm Calm - N/A   Mostly Cloudy
9:51 AM 71.1 °F 45.0 °F 39% 30.10 in 10.0 mi South 4.6 mph - N/A   Mostly Cloudy
10:51 AM 77.0 °F 39.9 °F 26% 30.09 in 10.0 mi SSW 11.5 mph - N/A   Mostly Cloudy
11:51 AM 80.1 °F 37.9 °F 22% 30.07 in 10.0 mi South 12.7 mph - N/A   Mostly Cloudy
12:51 PM 84.0 °F 37.9 °F 19% 30.05 in 10.0 mi South 10.4 mph - N/A   Mostly Cloudy
1:51 PM 86.0 °F 37.0 °F 18% 30.02 in 10.0 mi SSW 18.4 mph 24.2 mph N/A   Scattered Clouds
2:05 PM 86.0 °F 37.0 °F 18% 30.01 in 10.0 mi SSW 12.7 mph - N/A   Scattered Clouds
2:51 PM 87.1 °F 37.0 °F 17% 30.00 in 10.0 mi WSW 12.7 mph 20.7 mph N/A   Scattered Clouds
3:51 PM 88.0 °F 39.9 °F 18% 29.98 in 10.0 mi West 13.8 mph - N/A   Mostly Cloudy
4:51 PM 88.0 °F 39.9 °F 18% 29.97 in 10.0 mi WSW 8.1 mph - N/A   Mostly Cloudy
5:51 PM 81.0 °F 52.0 °F 36% 29.98 in 10.0 mi South 16.1 mph - N/A   Mostly Cloudy
6:51 PM 80.1 °F 51.1 °F 36% 29.99 in 10.0 mi South 12.7 mph - N/A   Mostly Cloudy
7:51 PM 78.1 °F 54.0 °F 43% 30.00 in 10.0 mi South 10.4 mph - N/A   Mostly Cloudy
8:51 PM 73.0 °F 57.0 °F 57% 30.01 in 10.0 mi South 8.1 mph - N/A   Partly Cloudy
9:51 PM 71.1 °F 57.9 °F 63% 30.03 in 10.0 mi South 6.9 mph - N/A   Mostly Cloudy
10:51 PM 68.0 °F 57.9 °F 70% 30.03 in 10.0 mi SE 5.8 mph - N/A   Mostly Cloudy
11:51 PM 66.9 °F 57.0 °F 70% 30.02 in 10.0 mi SE 3.5 mph - N/A   Scattered Clouds